Minneapolis Flying Cloud, MN

11:54 PM CDT on June 17, 2018 (GMT -0500)
Flying Cloud

Weather History for KFCM - April, 2008

Change the Weather History Date:

Wednesday, April 16, 2008

  Actual Average Record
Temperature  
Mean Temperature 56 °F -  
Max Temperature 68 °F 55 °F 84 °F (2002)
Min Temperature 45 °F 37 °F 23 °F (2018)
Degree Days  
Heating Degree Days 9    
Growing Degree Days 6 (Base 50)    
Moisture  
Dew Point 40 °F    
Average Humidity 53    
Maximum Humidity 68    
Minimum Humidity 43    
Precipitation  
Precipitation 0.00 in - - ()
Sea Level Pressure  
Sea Level Pressure 29.62 in    
Wind  
Wind Speed 15 mph (WSW)    
Max Wind Speed 23 mph    
Max Gust Speed 34 mph    
Visibility 10 miles    
Events      
Averages and records for this station are not official NWS values.
T = Trace of Precipitation, MM = Missing Value Source: NWS Daily Summary

Daily Weather History Graph

Daily Weather History Graph

Search for Another Location

Airport or City:

Astronomy

Apr. 16, 2008 Rise Set
Actual Time 6:26 AM CDT 8:00 PM CDT
Civil Twilight 5:56 AM CDT 8:31 PM CDT
Nautical Twilight 5:19 AM CDT 9:09 PM CDT
Astronomical Twilight 4:39 AM CDT 9:49 PM CDT
Moon 4:29 PM CDT (4/16) 4:46 AM CDT (4/16)
Length of Visible Light 14h 35m
Length of Day
13h 34m
Waxing Gibbous, 87% of the Moon is Illuminated
Apr 16
Waxing Gibbous
Apr 20
Full
Apr 28
Last Quarter
May 5
New
May 11
First Quarter

Hourly Weather History & Observations

Time (CDT) Temp. Windchill Dew Point Humidity Pressure Visibility Wind Dir Wind Speed Gust Speed Precip Events Conditions
12:53 AM 57.0 °F - 36.0 °F 45% 29.55 in 10.0 mi South 16.1 mph 24.2 mph N/A   Clear
1:53 AM 55.9 °F - 36.0 °F 47% 29.53 in 10.0 mi South 15.0 mph 27.6 mph N/A   Clear
2:53 AM 55.0 °F - 36.0 °F 49% 29.51 in 10.0 mi South 15.0 mph 24.2 mph N/A   Clear
3:53 AM 54.0 °F - 36.0 °F 51% 29.53 in 10.0 mi South 15.0 mph 21.9 mph N/A   Clear
4:53 AM 53.1 °F - 36.0 °F 52% 29.49 in 10.0 mi South 17.3 mph 28.8 mph N/A   Clear
5:53 AM 48.9 °F - 36.0 °F 61% 29.48 in 10.0 mi SSE 10.4 mph - N/A   Clear
7:53 AM 50.0 °F - 36.0 °F 59% 29.48 in 10.0 mi South 15.0 mph - N/A   Clear
8:53 AM 55.0 °F - 39.0 °F 55% 29.47 in 9.0 mi South 12.7 mph - N/A   Clear
9:53 AM 59.0 °F - 41.0 °F 51% 29.46 in 10.0 mi SSW 18.4 mph 34.5 mph N/A   Partly Cloudy
10:53 AM 62.1 °F - 42.1 °F 48% 29.47 in 10.0 mi SSW 23.0 mph 29.9 mph N/A   Mostly Cloudy
11:53 AM 64.9 °F - 43.0 °F 45% 29.49 in 10.0 mi SSW 11.5 mph - N/A   Clear
12:53 PM 66.0 °F - 43.0 °F 43% 29.51 in 10.0 mi WSW 15.0 mph - N/A   Clear
1:53 PM 66.0 °F - 46.0 °F 48% 29.55 in 10.0 mi West 18.4 mph 25.3 mph N/A   Scattered Clouds
2:53 PM 63.0 °F - 45.0 °F 52% 29.58 in 10.0 mi West 17.3 mph 24.2 mph N/A   Partly Cloudy
3:53 PM 64.9 °F - 44.1 °F 47% 29.61 in 10.0 mi WNW 15.0 mph 23.0 mph N/A   Mostly Cloudy
4:53 PM 64.0 °F - 44.1 °F 48% 29.64 in 10.0 mi WNW 19.6 mph 25.3 mph N/A   Clear
5:53 PM 62.1 °F - 44.1 °F 52% 29.70 in 10.0 mi West 15.0 mph - N/A   Clear
6:53 PM 59.0 °F - 42.1 °F 53% 29.74 in 10.0 mi NW 13.8 mph - N/A   Clear
7:53 PM 53.1 °F - 39.9 °F 61% 29.79 in 10.0 mi NNW 13.8 mph 25.3 mph N/A   Clear
8:53 PM 51.1 °F - 39.0 °F 63% 29.84 in 10.0 mi NNW 9.2 mph - N/A   Clear
9:53 PM 50.0 °F - 37.0 °F 61% 29.88 in 10.0 mi NNW 10.4 mph - N/A   Clear
10:53 PM 46.9 °F - 36.0 °F 66% 29.94 in 10.0 mi NW 6.9 mph - N/A   Clear
11:53 PM 45.0 °F 42.6 °F 35.1 °F 68% 29.95 in 10.0 mi NW 4.6 mph - N/A   Clear